Regional Weather Roundup
Issued by NWS Sterling, VA

Home | Current Version | Previous Version | Graphics & Text | Print | Product List | Glossary On
Versions: 1 2 3 4 5 6 7 8 9 10 11 12 13 14 15 16 17 18 19 20 21 22 23 24 25 26 27
000
ASUS41 KLWX 290110
RWRLWX

REGIONAL WEATHER ROUNDUP
NATIONAL WEATHER SERVICE BALTIMORE MD/WASHINGTON DC
900 PM EDT THU APR 28 2016

Note: "FAIR" indicates few or no clouds below 12,000 feet
with no significant weather and/or obstructions to visibility.
 TC=TEMPERATURE CELSIUS

 * =Non NWS site. Station does not report precipitation (e.g. rain,
    snow, etc.), thunder, or fog.

DCZ001-MDZ009-015-VAZ040>042-051-053>054-290200-
WASHINGTON METRO

CITY           SKY/WX    TMP DP  RH WIND       PRES   REMARKS
WASHINGTON NAT HVY RAIN  49  47  93 NE9       30.05R FOG
DULLES         LGT RAIN  48  46  93 NE6       30.01R FOG
FT BELVOIR     CLOUDY    50  46  87 VRB3      30.03R
QUANTICO       CLOUDY    51  49  92 NE13      30.02R
COLLEGE PARK*  CLOUDY    45  43  93 NE3       30.03R
LEESBURG*      RAIN      48  48 100 CALM      30.02S
MANASSAS*      CLOUDY    50  48  93 E5        30.01R
GAITHERSBURG*  CLOUDY    46  41  81 E5        30.06R

$$

MDZ006>007-011-014-290200-
BALTIMORE METRO

CITY           SKY/WX    TMP DP  RH WIND       PRES   REMARKS
BWI AIRPORT    DRIZZLE   47  44  90 NE10      30.03R FOG
MD SCIENCE CTR   N/A     47  42  83 MISG      30.05R
MARTIN STATE   CLOUDY    48  45  87 NE7       30.05R
ANNAPOLIS      CLOUDY    48  45  89 MISG      30.02S
FORT MEADE*    CLOUDY    46  41  81 NE8       30.04S

$$

MDZ012-015-019>023-290200-
MARYLAND EASTERN SHORE

CITY           SKY/WX    TMP DP  RH WIND       PRES   REMARKS
OCEAN CITY     CLOUDY    50  49  96 NE8       29.99R FOG
SALISBURY      CLOUDY    50  49  96 NE9       29.99R FOG
CAMBRIDGE*     CLOUDY    46  46 100 NE7       30.00S

$$

MDZ017>025-290200-
SOUTHERN MARYLAND

CITY           SKY/WX    TMP DP  RH WIND       PRES   REMARKS
PATUXENT RIVER DRIZZLE   49  47  93 NE12      30.00R
ST INIGOES     CLOUDY    51  49  92 N9        29.99R
LEONARDTOWN*   CLOUDY    48  46  93 NE5       30.02R

$$

MDZ003>005-290200-
NORTH CENTRAL MARYLAND

CITY           SKY/WX    TMP DP  RH WIND       PRES   REMARKS
FREDERICK*     CLOUDY    45  45 100 E6        30.05S FOG
HAGERSTOWN APT LGT RAIN  47  44  90 N5        30.01S
WESTMINSTER*   NOT AVBL

$$

MDZ501>502-290200-
WESTERN MARYLAND

CITY           SKY/WX    TMP DP  RH WIND       PRES   REMARKS
OAKLAND*       FOG       43  43 100 SE9       29.94R VSB 1/4
CUMBERLAND*    CLOUDY    48  48 100 CALM      30.03R

$$

VAZ025>031-290200-
SHENANDOAH VALLEY

CITY           SKY/WX    TMP DP  RH WIND       PRES   REMARKS
WINCHESTER*    RAIN      48  46  93 CALM      30.01R
FRONT ROYAL*   CLOUDY    48  46  93 N6        30.00R
LURAY*         CLOUDY    52  52 100 NE8       29.97S
NEW MARKET*    CLOUDY    50  49  97 N7        29.97S
STAUNTON*      CLOUDY    55  55 100 N3        29.97S FOG
WAYNESBORO*    CLOUDY    55  53  96 MISG      29.96R

$$

WVZ021-048>050-054>055-290200-
EASTERN WEST VIRGINIA PANHANDLE

CITY           SKY/WX    TMP DP  RH WIND       PRES   REMARKS
MARTINSBURG    CLOUDY    46  45  96 N7        30.00S FOG
PETERSBURG*    CLOUDY    53  51  95 CALM      29.97S

$$

VAZ036>039-050-290200-
CENTRAL FOOTHILLS

CITY           SKY/WX    TMP DP  RH WIND       PRES   REMARKS
CHARLOTTESVILL CLOUDY    55  52  89 NE8       29.96R
CULPEPER*      CLOUDY    54  54  99 E3        29.99S
ORANGE*        LGT RAIN  54  54 100 NE3       29.99R
GORDONSVILLE*  CLOUDY    54  53  98 NE7       29.96S
WARRENTON*     CLOUDY    52  48  85 NE8       29.99R FOG

$$

VAZ055>057-290200-
NORTH AND CENTRAL PIEDMONT

CITY           SKY/WX    TMP DP  RH WIND       PRES   REMARKS
FREDERICKSBRG* CLOUDY    53  53 100 NE8       29.98S
STAFFORD*      CLOUDY    51  49  93 NE9       30.03S FOG

$$

NCZ024-NYZ072-PAZ021-071-VAZ022-071-290200-
OTHER REGIONAL OBSERVATIONS

CITY           SKY/WX    TMP DP  RH WIND       PRES   REMARKS
NEW YORK CITY  CLOUDY    50  31  48 S3        30.07R
PHILADELPHIA   CLOUDY    45  41  86 NE6       30.06S
PITTSBURGH     DRZL/FOG  49  46  90 N9        29.92S VSB 1/2
ROANOKE        CLOUDY    62  59  90 SE6       29.93R
RICHMOND       DRIZZLE   55  54  96 NE9       29.96R FOG
RALEIGH        TSTM      68  66  93 SE3       29.89R

$$

ANZ530>537-290200-
MARINE OBSERVATIONS

STATION/POSITION TIME  TEMP    WIND        PRES
                       AIR SEA DIR/SP/G
                 (UTC) (F)     (DEG/KT/KT) (MB)
THOMAS PT LIGHT  0100   47 58   50/ 13/ 15 1017.7R
BALT KEY BRIDGE  0000   49                 1016.7R
COVE POINT       0000   49                 1015.8R
LEWISETTA        0000   53 61              1014.2R
SOLOMONS ISLAND  0000   50 61                N/A

$$





USA.gov is the U.S. government's official web portal to all federal, state and local government web resources and services.